Weather History for KILM - December, 2011

Change the Weather History Date:

Friday, December 16, 2011

  Actual Average Record
Temperature  
Mean Temperature 66 °F 48 °F  
Max Temperature 76 °F 59 °F 80 °F (1971)
Min Temperature 56 °F 38 °F 12 °F (1943)
Degree Days  
Heating Degree Days 0 17  
Month to date heating degree days 189 240  
Since 1 July heating degree days 516 609  
Cooling Degree Days 1 0  
Month to date cooling degree days 1 0  
Year to date cooling degree days 2337 2037  
Growing Degree Days 15 (Base 50)    
Moisture  
Dew Point 55 °F    
Average Humidity 70    
Maximum Humidity 90    
Minimum Humidity 50    
Precipitation  
Precipitation 0.00 in 0.11 in 2.22 in (1970)
Month to date precipitation 0.02 1.87  
Year to date precipitation 43.39 55.86  
Snow  
Snow 0.00 in 0.00 in 1.60 in (1988)
Month to date snowfall 0.0 0.3  
Since 1 July snowfall 0.0 0.3  
Snow Depth 0.00 in    
Sea Level Pressure  
Sea Level Pressure 30.13 in    
Wind  
Wind Speed 8 mph (SW)    
Max Wind Speed 15 mph    
Max Gust Speed 18 mph    
Visibility 10 miles    
Events      
T = Trace of Precipitation, MM = Missing Value Source: NWS Daily Summary

Daily Weather History Graph

Daily Weather History Graph

Search for Another Location

Airport or City:

Trip Planner

Search our weather history database for the weather conditions in past years. The results will help you decide how hot, cold, wet, or windy it might be!

Date:

Astronomy

Dec. 16, 2011 Rise Set
Actual Time 7:10 AM EST 5:03 PM EST
Civil Twilight 6:42 AM EST 5:31 PM EST
Nautical Twilight 6:11 AM EST 6:02 PM EST
Astronomical Twilight 5:40 AM EST 6:33 PM EST
Moon 11:19 PM EST (12/16) 11:09 AM EST (12/16)
Length of Visible Light 10h 48m
Length of Day
9h 52m
Waning Gibbous, 65% of the Moon is Illuminated
Dec 16
Waning Gibbous
Dec 17
Last Quarter
Dec 24
New
Jan 1
First Quarter
Jan 9
Full

Hourly Weather History & Observations

Time (EST) Temp. Dew Point Humidity Pressure Visibility Wind Dir Wind Speed Gust Speed Precip Events Conditions
12:53 AM 60.1 °F 54.0 °F 80% 30.16 in 10.0 mi SW 6.9 mph - N/A   Clear
1:53 AM 61.0 °F 54.0 °F 78% 30.17 in 10.0 mi SW 10.4 mph - N/A   Overcast
2:53 AM 60.1 °F 53.1 °F 78% 30.16 in 10.0 mi SW 8.1 mph - N/A   Scattered Clouds
3:53 AM 59.0 °F 53.1 °F 81% 30.15 in 10.0 mi WSW 8.1 mph - N/A   Clear
4:53 AM 57.2 °F 53.6 °F 88% 30.15 in 10.0 mi WSW 6.9 mph - N/A   Clear
5:53 AM 55.9 °F 52.0 °F 87% 30.16 in 10.0 mi SW 5.8 mph - N/A   Clear
6:53 AM 55.9 °F 52.0 °F 87% 30.17 in 10.0 mi SW 4.6 mph - N/A   Clear
7:53 AM 59.0 °F 53.1 °F 81% 30.17 in 10.0 mi SW 6.9 mph - N/A   Clear
8:53 AM 64.0 °F 55.0 °F 73% 30.17 in 10.0 mi WSW 11.5 mph - N/A   Clear
9:53 AM 68.0 °F 55.0 °F 63% 30.19 in 10.0 mi WSW 10.4 mph - N/A   Clear
10:53 AM 71.1 °F 55.9 °F 59% 30.18 in 10.0 mi West 12.7 mph - N/A   Clear
11:53 AM 73.9 °F 55.9 °F 53% 30.16 in 10.0 mi West 11.5 mph - N/A   Clear
12:53 PM 75.0 °F 55.9 °F 51% 30.13 in 10.0 mi WSW 11.5 mph - N/A   Clear
1:53 PM 75.0 °F 55.9 °F 51% 30.12 in 10.0 mi SW 9.2 mph - N/A   Clear
2:53 PM 75.9 °F 55.9 °F 50% 30.10 in 10.0 mi West 6.9 mph - N/A   Clear
3:53 PM 75.0 °F 55.9 °F 51% 30.09 in 10.0 mi West 6.9 mph - N/A   Clear
4:53 PM 70.0 °F 57.0 °F 63% 30.09 in 10.0 mi SSW 6.9 mph - N/A   Clear
5:53 PM 64.9 °F 55.9 °F 73% 30.10 in 10.0 mi SSW 5.8 mph - N/A   Clear
6:53 PM 64.0 °F 55.9 °F 75% 30.11 in 10.0 mi SSW 6.9 mph - N/A   Clear
7:53 PM 63.0 °F 57.0 °F 81% 30.11 in 10.0 mi SSW 9.2 mph - N/A   Clear
8:53 PM 62.1 °F 57.0 °F 84% 30.09 in 10.0 mi SSW 10.4 mph - N/A   Clear
9:53 PM 60.8 °F 57.2 °F 88% 30.10 in 10.0 mi SW 8.1 mph - N/A   Partly Cloudy
10:53 PM 60.1 °F 55.9 °F 86% 30.09 in 10.0 mi SW 6.9 mph - N/A   Clear
11:53 PM 59.0 °F 55.9 °F 90% 30.07 in 10.0 mi South 3.5 mph - N/A   Mostly Cloudy